Voltar ao catálogo

TANSEI 3 DEB

AtivoUNKNOWN
NORAD 14512·DEBRIS·🇯🇵 Japan

Lançado Feb 19, 1977 de Uchinoura Space Center

Loading…

Próximas Passagens (próximas 24 horas)

TLE

AtualizadoSource: Space-Track

Época: Aug 31, 2026, 12:23 UTC

1 14512U 77012K   26243.51632384  .00000005  00000-0  11825-3 0  9994
2 14512  65.7460 294.6675 1723315 234.5796 108.2017 10.76866310108028

Acompanhe TANSEI 3 DEB em tempo real com AllMySat

Download on the App Store